Simultaneous Nadir Overpasses (SNOs) Predictions

Prediction of SNOs between GOES-17 and NOAA-20 Satellite Orbit:

Table of predicted SNOs for the next 14.0 days since TLE Epoch: 3/23/2024
Index Date Time (GOES-17) GOES-17 Lat,Lon NOAA-20 Lat,Lon Distance(km) Time Diff (sec)
1 03/23/2024 20:34:31 0.00,-104.67 -0.60,-107.50 321.95 80
2 03/24/2024 20:16:46 0.00,-104.67 0.48,-102.56 240.87 80
3 03/26/2024 08:36:00 -0.00,-104.69 0.58,-107.21 286.56 80
4 03/27/2024 08:12:56 -0.00,-104.69 -0.56,-102.28 276.03 80
5 03/28/2024 20:32:16 -0.00,-104.67 -0.51,-106.95 259.71 80
6 03/29/2024 20:14:31 -0.00,-104.67 0.58,-102.01 302.87 80
7 03/31/2024 08:33:46 0.00,-104.69 0.44,-106.67 225.27 80
8 04/01/2024 08:10:41 0.01,-104.69 -0.65,-101.73 336.98 80
9 04/02/2024 20:30:00 -0.02,-104.65 -0.42,-106.40 198.99 80
10 04/03/2024 20:12:14 -0.02,-104.65 0.68,-101.46 363.38 80
11 04/05/2024 08:31:30 0.02,-104.67 0.37,-106.11 165.06 80
